Location: ?????
(55.8833°N, 37.6500°E)
Time: 04:30:15
(UTC+00:00)

Cosmos 468 Rocket - Pass Details

Date: 27 February 2020
Orbit: 744 x 780 km, 74.0° (Epoch: 31 March)

Event Time Altitude Azimuth Distance (km) Brightness Sun altitude
Rises 17:02:10 0° 205° (SSW) 3,245 7.4 -18.1°
Reaches altitude 10° 17:04:32 10° 205° (SSW) 2,325 6.6 -18.4°
Maximum altitude 17:09:50 87° 116° (ESE) 789 4.0 -19.1°
Drops below altitude 10° 17:15:12 10° 29° (NNE) 2,347 6.4 -19.8°
Sets 17:17:36 0° 29° (NNE) 3,278 7.1 -20.2°
